Overview Statistics Trail Chart Weather Telemetry Raw packets
 

This is the latest recevied weather packets stored in our database for station/object EA4BHK-10. If no packets are shown the sender has not sent any weather packets the latest 10 day(s).

<< 24 25 26 27 28 29 30 >>
Time Temp. Humidity Pressure Rain* Wind** Luminosity Snow
1788007192 27.22° C 21% 1017.4 hPa - - - -
1788006282 27.78° C 22% 1017.3 hPa - - - -
1788005384 27.22° C 22% 1017.8 hPa - - - -
1788004482 26.67° C 23% 1018.1 hPa - - - -
1788002682 26.11° C 25% 1018.5 hPa - - - -
1788001922 25° C 25% 1019 hPa - - - -
1788000882 24.44° C 26% 1019.5 hPa - - - -
1788000102 24.44° C 25% 1019.6 hPa - - - -
1787999082 23.89° C 26% 1020 hPa - - - -
1787997685 23.89° C 30% 1020.2 hPa - - - -
1787996785 23.33° C 30% 1020.4 hPa - - - -
1787995885 22.22° C 33% 1020.8 hPa - - - -
1787994985 21.11° C 35% 1021.1 hPa - - - -
1787994085 20° C 36% 1021.4 hPa - - - -
1787993185 19.44° C 40% 1021.5 hPa - - - -
1787992285 17.78° C 41% 1022 hPa - - - -
1787991385 17.22° C 42% 1022.3 hPa - - - -
1787990485 16.11° C 44% 1022.6 hPa - - - -
1787989585 15.56° C 45% 1022.8 hPa - - - -
1787988692 14.44° C 47% 1023.3 hPa - - - -
1787987785 13.33° C 52% 1023.8 hPa - - - -
1787986885 11.67° C 55% 1024.5 hPa - - - -
1787985985 10.56° C 56% 1025 hPa - - - -
1787984593 9.44° C 57% 1025.3 hPa - - - -
1787983693 8.89° C 57% 1025.3 hPa - - - -

* Rain since midnight (hover to see other rain measurements)
** Current wind speed in m/s (hover to see current wind gust speed)